sat.trackr.live / text

‹ back to catalog

STARLINK-3204

NORAD 49759 · 2021-115AM

PAYLOAD ACTIVE UNKNOWN

§ Identity

Operator
Country
US
Launch date
2021-12-02
Launch site
AFETR
Launch vehicle
Mass (kg)
RCS (m²)

Purposes: comms

External: N2YO · Heavens-Above · Gunter

§ Orbital elements

Epoch: 2026-09-14T17:10:10.292160Z

Period
93.79 min
Inclination
53.1615°
Eccentricity
0.0002003
Mean motion
15.35379148 rev/d
Perigee alt
458.4 km
Apogee alt
461.2 km
Semi-major
6,837.9 km
B*
-2.7074e-5
RAAN
356.4191°
Arg perigee
73.2017°
Mean anomaly
286.9206°
Rev number
26,440

§ Raw data

STARLINK-32041 49759U 21115AM  26257.71539690 -.00001325  00000+0 -27074-4 0  99922 49759  53.1615 356.4191 0002003  73.2017 286.9206 15.35379148264406

JSON: /api/v1/satellites/49759 · /tle

For live sub-satellite position, see the globe view (requires WebGL).

§ Visibility from observer

Set your observer location to see the next 7 days of passes ≥ 10°. The values pass through the URL so the page stays shareable.

No JS? Fill the form by hand. The geolocation button needs JavaScript.